Location: Carrières
(48.9495°N, 2.0407°E)
Time: 00:07:32
(UTC+00:00)

Cosmos 1606 Rocket - Pass Details

Date: 23 June 2024
Orbit: 599 x 628 km, 82.5° (Epoch: 15 July)

Event Time Altitude Azimuth Distance (km) Brightness Sun altitude
Rises 02:44:24 0° 333° (NNW) 2,915 7.4 -8.3°
Reaches altitude 10° 02:47:34 10° 309° (NW) 1,996 6.2 -8.0°
Maximum altitude 02:49:53 14° 278° (W) 1,724 5.5 -7.7°
Drops below altitude 10° 02:52:11 10° 246° (WSW) 1,978 5.6 -7.5°
Enters shadow 02:52:50 - 239° (WSW) 2,128 5.7 -7.4°
